This is the latest recevied weather packets stored in our database for station/object KC5DAQ-29. If no packets are shown the sender has not sent any weather packets the latest 10 day(s).
| Time | Temp. | Humidity | Pressure | Rain* | Wind** | Luminosity | Snow |
|---|---|---|---|---|---|---|---|
| 1777651204 | 16.67° C | 100% | 1009.1 hPa | 0.25 mm | - | 28 W/m² | - |
| 1777651136 | 16.67° C | 100% | 1009 hPa | 0.25 mm | - | 28 W/m² | - |
| 1777651069 | 16.67° C | 100% | 1009.2 hPa | 0.25 mm | - | 28 W/m² | - |
| 1777651005 | 16.67° C | 100% | 1009.3 hPa | 0.25 mm | - | 28 W/m² | - |
| 1777650931 | 16.67° C | 100% | 1009.4 hPa | 0.25 mm | - | 28 W/m² | - |
| 1777650872 | 16.67° C | 100% | 1009.5 hPa | 0.25 mm | - | 28 W/m² | - |
| 1777650814 | 16.67° C | 100% | 1009.5 hPa | 0.25 mm | - | 28 W/m² | - |
| 1777650747 | 16.67° C | 100% | 1009.4 hPa | 0.25 mm | - | 28 W/m² | - |
| 1777650686 | 16.67° C | 100% | 1009.4 hPa | 0.25 mm | - | 28 W/m² | - |
| 1777650619 | 16.67° C | 100% | 1009.2 hPa | 0.25 mm | - | 28 W/m² | - |
| 1777650559 | 16.67° C | 100% | 1009.1 hPa | 0.25 mm | - | 32 W/m² | - |
| 1777650496 | 16.67° C | 100% | 1009.2 hPa | 0.25 mm | - | 44 W/m² | - |
| 1777650428 | 16.67° C | 100% | 1009.1 hPa | 0.25 mm | - | 44 W/m² | - |
| 1777650365 | 16.67° C | 100% | 1009.1 hPa | 0.25 mm | - | 44 W/m² | - |
| 1777650303 | 16.67° C | 100% | 1009.1 hPa | 0.25 mm | - | 44 W/m² | - |
| 1777650243 | 16.67° C | 100% | 1009.1 hPa | 0.51 mm | - | 42 W/m² | - |
| 1777650183 | 16.67° C | 100% | 1009 hPa | 0.51 mm | - | 42 W/m² | - |
| 1777650123 | 16.67° C | 100% | 1009 hPa | 0.51 mm | - | 42 W/m² | - |
| 1777650064 | 16.67° C | 100% | 1009 hPa | 0.51 mm | - | 48 W/m² | - |
| 1777650003 | 16.67° C | 100% | 1009.1 hPa | 0.51 mm | - | 48 W/m² | - |
| 1777649943 | 16.67° C | 100% | 1009.1 hPa | 0.51 mm | - | 51 W/m² | - |
| 1777649884 | 16.67° C | 100% | 1009.1 hPa | 0.51 mm | - | 49 W/m² | - |
| 1777649824 | 16.67° C | 100% | 1009.1 hPa | 0.51 mm | - | 63 W/m² | - |
| 1777649763 | 16.67° C | 100% | 1009 hPa | 0.51 mm | - | 63 W/m² | - |
| 1777649704 | 16.67° C | 100% | 1009 hPa | 0.51 mm | - | 63 W/m² | - |
* Rain latest hour (hover to see other rain measurements)
** Current wind speed in m/s (hover to see current wind gust speed)